Year,Month,Day,Hour,Minute,Value (Times are PST for temperature in C)
2008,07,20,00,00,13.40
2008,07,20,00,01,13.40
2008,07,20,00,02,13.40
2008,07,20,00,03,13.40
2008,07,20,00,04,13.40
2008,07,20,00,05,13.40
2008,07,20,00,06,13.40
2008,07,20,00,07,13.40
2008,07,20,00,08,13.40
2008,07,20,00,09,13.40
2008,07,20,00,10,13.40
2008,07,20,00,11,13.40
2008,07,20,00,12,13.40
2008,07,20,00,13,13.40
2008,07,20,00,14,13.40
2008,07,20,00,15,13.30
2008,07,20,00,16,13.30
2008,07,20,00,17,13.30
2008,07,20,00,18,13.30
2008,07,20,00,19,13.30
2008,07,20,00,20,13.20
2008,07,20,00,21,13.20
2008,07,20,00,22,13.20
2008,07,20,00,23,13.10
2008,07,20,00,24,13.10
2008,07,20,00,25,13.10
2008,07,20,00,26,13.10
2008,07,20,00,27,13.00
2008,07,20,00,28,12.90
2008,07,20,00,29,12.90
2008,07,20,00,30,12.90
2008,07,20,00,31,12.90
2008,07,20,00,32,12.90
2008,07,20,00,33,12.90
2008,07,20,00,34,12.90
2008,07,20,00,35,12.80
2008,07,20,00,36,12.80
2008,07,20,00,37,12.80
2008,07,20,00,38,12.80
2008,07,20,00,39,12.80
2008,07,20,00,40,12.80
2008,07,20,00,41,12.80
2008,07,20,00,42,12.80
2008,07,20,00,43,12.80
2008,07,20,00,44,12.80
2008,07,20,00,45,12.80
2008,07,20,00,46,12.70
2008,07,20,00,47,12.70
2008,07,20,00,48,12.70
2008,07,20,00,49,12.70
2008,07,20,00,50,12.70
2008,07,20,00,51,12.70
2008,07,20,00,52,12.70
2008,07,20,00,53,12.70
2008,07,20,00,54,12.70
2008,07,20,00,55,12.60
2008,07,20,00,56,12.60
2008,07,20,00,57,12.60
2008,07,20,00,58,12.60
2008,07,20,00,59,12.60
2008,07,20,01,00,12.60
2008,07,20,01,01,12.60
2008,07,20,01,02,12.60
2008,07,20,01,03,12.60
2008,07,20,01,04,12.60
2008,07,20,01,05,12.60
2008,07,20,01,06,12.60
2008,07,20,01,07,12.60
2008,07,20,01,08,12.60
2008,07,20,01,09,12.60
2008,07,20,01,10,12.60
2008,07,20,01,11,12.60
2008,07,20,01,12,12.60
2008,07,20,01,13,12.60
2008,07,20,01,14,12.60
2008,07,20,01,15,12.60
2008,07,20,01,16,12.60
2008,07,20,01,17,12.60
2008,07,20,01,18,12.60
2008,07,20,01,19,12.50
2008,07,20,01,20,12.50
2008,07,20,01,21,12.60
2008,07,20,01,22,12.60
2008,07,20,01,23,12.60
2008,07,20,01,24,12.60
2008,07,20,01,25,12.60
2008,07,20,01,26,12.60
2008,07,20,01,27,12.60
2008,07,20,01,28,12.60
2008,07,20,01,29,12.60
2008,07,20,01,30,12.60
2008,07,20,01,31,12.60
2008,07,20,01,32,12.50
2008,07,20,01,33,12.50
2008,07,20,01,34,12.50
2008,07,20,01,35,12.50
2008,07,20,01,36,12.40
2008,07,20,01,37,12.40
2008,07,20,01,38,12.40
2008,07,20,01,39,12.40
2008,07,20,01,40,12.40
2008,07,20,01,41,12.40
2008,07,20,01,42,12.40
2008,07,20,01,43,12.40
2008,07,20,01,44,12.40
2008,07,20,01,45,12.40
2008,07,20,01,46,12.40
2008,07,20,01,47,12.40
2008,07,20,01,48,12.30
2008,07,20,01,49,12.30
2008,07,20,01,50,12.30
2008,07,20,01,51,12.30
2008,07,20,01,52,12.30
2008,07,20,01,53,12.30
2008,07,20,01,54,12.30
2008,07,20,01,55,12.30
2008,07,20,01,56,12.30
2008,07,20,01,57,12.20
2008,07,20,01,58,12.20
2008,07,20,01,59,12.20
2008,07,20,02,00,12.20
2008,07,20,02,01,12.20
2008,07,20,02,02,12.20
2008,07,20,02,03,12.20
2008,07,20,02,04,12.20
2008,07,20,02,05,12.20
2008,07,20,02,06,12.20
2008,07,20,02,07,12.20
2008,07,20,02,08,12.20
2008,07,20,02,09,12.20
2008,07,20,02,10,12.20
2008,07,20,02,11,12.20
2008,07,20,02,12,12.20
2008,07,20,02,13,12.20
2008,07,20,02,14,12.20
2008,07,20,02,15,12.20
2008,07,20,02,16,12.20
2008,07,20,02,17,12.20
2008,07,20,02,18,12.20
2008,07,20,02,19,12.20
2008,07,20,02,20,12.20
2008,07,20,02,21,12.20
2008,07,20,02,22,12.20
2008,07,20,02,23,12.20
2008,07,20,02,24,12.20
2008,07,20,02,25,12.20
2008,07,20,02,26,12.20
2008,07,20,02,27,12.20
2008,07,20,02,28,12.10
2008,07,20,02,29,12.10
2008,07,20,02,30,12.10
2008,07,20,02,31,12.10
2008,07,20,02,32,12.10
2008,07,20,02,33,12.10
2008,07,20,02,34,12.10
2008,07,20,02,35,12.10
2008,07,20,02,36,12.10
2008,07,20,02,37,12.10
2008,07,20,02,38,12.00
2008,07,20,02,39,12.00
2008,07,20,02,40,12.00
2008,07,20,02,41,12.00
2008,07,20,02,42,12.00
2008,07,20,02,43,12.10
2008,07,20,02,44,12.10
2008,07,20,02,45,12.10
2008,07,20,02,46,12.10
2008,07,20,02,47,12.10
2008,07,20,02,48,12.10
2008,07,20,02,49,12.10
2008,07,20,02,50,12.10
2008,07,20,02,51,12.10
2008,07,20,02,52,12.10
2008,07,20,02,53,12.10
2008,07,20,02,54,12.10
2008,07,20,02,55,12.10
2008,07,20,02,56,12.10
2008,07,20,02,57,12.00
2008,07,20,02,58,12.00
2008,07,20,02,59,11.90
2008,07,20,03,00,11.90
2008,07,20,03,01,11.90
2008,07,20,03,02,11.80
2008,07,20,03,03,11.80
2008,07,20,03,04,11.70
2008,07,20,03,05,11.70
2008,07,20,03,06,11.60
2008,07,20,03,07,11.60
2008,07,20,03,08,11.50
2008,07,20,03,09,11.40
2008,07,20,03,10,11.40
2008,07,20,03,11,11.40
2008,07,20,03,12,11.30
2008,07,20,03,13,11.30
2008,07,20,03,14,11.30
2008,07,20,03,15,11.30
2008,07,20,03,16,11.30
2008,07,20,03,17,11.30
2008,07,20,03,18,11.30
2008,07,20,03,19,11.30
2008,07,20,03,20,11.30
2008,07,20,03,21,11.30
2008,07,20,03,22,11.30
2008,07,20,03,23,11.30
2008,07,20,03,24,11.30
2008,07,20,03,25,11.30
2008,07,20,03,26,11.20
2008,07,20,03,27,11.20
2008,07,20,03,28,11.20
2008,07,20,03,29,11.20
2008,07,20,03,30,11.10
2008,07,20,03,31,11.10
2008,07,20,03,32,11.10
2008,07,20,03,33,11.10
2008,07,20,03,34,11.10
2008,07,20,03,35,11.10
2008,07,20,03,36,11.10
2008,07,20,03,37,11.10
2008,07,20,03,38,11.10
2008,07,20,03,39,11.10
2008,07,20,03,40,11.10
2008,07,20,03,41,11.10
2008,07,20,03,42,11.10
2008,07,20,03,43,11.10
2008,07,20,03,44,11.10
2008,07,20,03,45,11.20
2008,07,20,03,46,11.20
2008,07,20,03,47,11.20
2008,07,20,03,48,11.20
2008,07,20,03,49,11.20
2008,07,20,03,50,11.20
2008,07,20,03,51,11.20
2008,07,20,03,52,11.20
2008,07,20,03,53,11.20
2008,07,20,03,54,11.20
2008,07,20,03,55,11.20
2008,07,20,03,56,11.20
2008,07,20,03,57,11.30
2008,07,20,03,58,11.30
2008,07,20,03,59,11.30
2008,07,20,04,00,11.30
2008,07,20,04,01,11.30
2008,07,20,04,02,11.30
2008,07,20,04,03,11.30
2008,07,20,04,04,11.30
2008,07,20,04,05,11.30
2008,07,20,04,06,11.30
2008,07,20,04,07,11.30
2008,07,20,04,08,11.20
2008,07,20,04,09,11.20
2008,07,20,04,10,11.20
2008,07,20,04,11,11.20
2008,07,20,04,12,11.20
2008,07,20,04,13,11.20
2008,07,20,04,14,11.20
2008,07,20,04,15,11.20
2008,07,20,04,16,11.10
2008,07,20,04,17,11.10
2008,07,20,04,18,11.10
2008,07,20,04,19,11.10
2008,07,20,04,20,11.10
2008,07,20,04,21,11.10
2008,07,20,04,22,11.10
2008,07,20,04,23,11.10
2008,07,20,04,24,11.10
2008,07,20,04,25,11.10
2008,07,20,04,26,11.10
2008,07,20,04,27,11.10
2008,07,20,04,28,11.10
2008,07,20,04,29,11.10
2008,07,20,04,30,11.10
2008,07,20,04,31,11.10
2008,07,20,04,32,11.10
2008,07,20,04,33,11.10
2008,07,20,04,34,11.10
2008,07,20,04,35,11.10
2008,07,20,04,36,11.10
2008,07,20,04,37,11.00
2008,07,20,04,38,11.00
2008,07,20,04,39,10.90
2008,07,20,04,40,10.80
2008,07,20,04,41,10.70
2008,07,20,04,42,10.70
2008,07,20,04,43,10.60
2008,07,20,04,44,10.50
2008,07,20,04,45,10.50
2008,07,20,04,46,10.40
2008,07,20,04,47,10.40
2008,07,20,04,48,10.30
2008,07,20,04,49,10.30
2008,07,20,04,50,10.30
2008,07,20,04,51,10.30
2008,07,20,04,52,10.30
2008,07,20,04,53,10.30
2008,07,20,04,54,10.30
2008,07,20,04,55,10.20
2008,07,20,04,56,10.20
2008,07,20,04,57,10.20
2008,07,20,04,58,10.20
2008,07,20,04,59,10.20
2008,07,20,05,00,10.20
2008,07,20,05,01,10.20
2008,07,20,05,02,10.20
2008,07,20,05,03,10.10
2008,07,20,05,04,10.10
2008,07,20,05,05,10.10
2008,07,20,05,06,10.10
2008,07,20,05,07,10.10
2008,07,20,05,08,10.10
2008,07,20,05,09,10.10
2008,07,20,05,10,10.10
2008,07,20,05,11,10.10
2008,07,20,05,12,10.10
2008,07,20,05,13,10.10
2008,07,20,05,14,10.10
2008,07,20,05,15,10.10
2008,07,20,05,16,10.10
2008,07,20,05,17,10.10
2008,07,20,05,18,10.10
2008,07,20,05,19,10.10
2008,07,20,05,20,10.10
2008,07,20,05,21,10.10
2008,07,20,05,22,10.10
2008,07,20,05,23,10.10
2008,07,20,05,24,10.10
2008,07,20,05,25,10.10
2008,07,20,05,26,10.10
2008,07,20,05,27,10.10
2008,07,20,05,28,10.10
2008,07,20,05,29,10.10
2008,07,20,05,30,10.10
2008,07,20,05,31,10.10
2008,07,20,05,32,10.10
2008,07,20,05,33,10.10
2008,07,20,05,34,10.10
2008,07,20,05,35,10.10
2008,07,20,05,36,10.10
2008,07,20,05,37,10.10
2008,07,20,05,38,10.10
2008,07,20,05,39,10.00
2008,07,20,05,40,10.00
2008,07,20,05,41,10.00
2008,07,20,05,42,10.00
2008,07,20,05,43,9.90
2008,07,20,05,44,9.90
2008,07,20,05,45,9.90
2008,07,20,05,46,9.90
2008,07,20,05,47,9.90
2008,07,20,05,48,9.90
2008,07,20,05,49,9.90
2008,07,20,05,50,9.90
2008,07,20,05,51,9.90
2008,07,20,05,52,9.90
2008,07,20,05,53,9.90
2008,07,20,05,54,9.90
2008,07,20,05,55,9.90
2008,07,20,05,56,10.00
2008,07,20,05,57,10.00
2008,07,20,05,58,10.00
2008,07,20,05,59,10.10
2008,07,20,06,00,10.10
2008,07,20,06,01,10.10
2008,07,20,06,02,10.10
2008,07,20,06,03,10.10
2008,07,20,06,04,10.20
2008,07,20,06,05,10.20
2008,07,20,06,06,10.20
2008,07,20,06,07,10.20
2008,07,20,06,08,10.20
2008,07,20,06,09,10.30
2008,07,20,06,10,10.30
2008,07,20,06,11,10.30
2008,07,20,06,12,10.30
2008,07,20,06,13,10.40
2008,07,20,06,14,10.40
2008,07,20,06,15,10.40
2008,07,20,06,16,10.50
2008,07,20,06,17,10.50
2008,07,20,06,18,10.50
2008,07,20,06,19,10.50
2008,07,20,06,20,10.60
2008,07,20,06,21,10.60
2008,07,20,06,22,10.60
2008,07,20,06,23,10.60
2008,07,20,06,24,10.70
2008,07,20,06,25,10.70
2008,07,20,06,26,10.80
2008,07,20,06,27,10.80
2008,07,20,06,28,10.90
2008,07,20,06,29,10.90
2008,07,20,06,30,11.00
2008,07,20,06,31,11.10
2008,07,20,06,32,11.10
2008,07,20,06,33,11.10
2008,07,20,06,34,11.20
2008,07,20,06,35,11.20
2008,07,20,06,36,11.20
2008,07,20,06,37,11.30
2008,07,20,06,38,11.30
2008,07,20,06,39,11.30
2008,07,20,06,40,11.30
2008,07,20,06,41,11.40
2008,07,20,06,42,11.40
2008,07,20,06,43,11.50
2008,07,20,06,44,11.60
2008,07,20,06,45,11.60
2008,07,20,06,46,11.70
2008,07,20,06,47,11.80
2008,07,20,06,48,11.80
2008,07,20,06,49,11.90
2008,07,20,06,50,11.90
2008,07,20,06,51,11.90
2008,07,20,06,52,11.90
2008,07,20,06,53,11.90
2008,07,20,06,54,12.00
2008,07,20,06,55,12.00
2008,07,20,06,56,12.00
2008,07,20,06,57,12.00
2008,07,20,06,58,12.00
2008,07,20,06,59,12.00
2008,07,20,07,00,12.00
2008,07,20,07,01,12.00
2008,07,20,07,02,12.10
2008,07,20,07,03,12.10
2008,07,20,07,04,12.20
2008,07,20,07,05,12.30
2008,07,20,07,06,12.40
2008,07,20,07,07,12.50
2008,07,20,07,08,12.50
2008,07,20,07,09,12.60
2008,07,20,07,10,12.60
2008,07,20,07,11,12.60
2008,07,20,07,12,12.70
2008,07,20,07,13,12.70
2008,07,20,07,14,12.70
2008,07,20,07,15,12.80
2008,07,20,07,16,12.80
2008,07,20,07,17,12.80
2008,07,20,07,18,12.90
2008,07,20,07,19,12.90
2008,07,20,07,20,13.00
2008,07,20,07,21,13.00
2008,07,20,07,22,13.10
2008,07,20,07,23,13.20
2008,07,20,07,24,13.30
2008,07,20,07,25,13.30
2008,07,20,07,26,13.40
2008,07,20,07,27,13.40
2008,07,20,07,28,13.50
2008,07,20,07,29,13.60
2008,07,20,07,30,13.60
2008,07,20,07,31,13.60
2008,07,20,07,32,13.70
2008,07,20,07,33,13.70
2008,07,20,07,34,13.70
2008,07,20,07,35,13.70
2008,07,20,07,36,13.70
2008,07,20,07,37,13.70
2008,07,20,07,38,13.70
2008,07,20,07,39,13.70
2008,07,20,07,40,13.70
2008,07,20,07,41,13.70
2008,07,20,07,42,13.70
2008,07,20,07,43,13.80
2008,07,20,07,44,13.90
2008,07,20,07,45,14.00
2008,07,20,07,46,14.10
2008,07,20,07,47,14.20
2008,07,20,07,48,14.20
2008,07,20,07,49,14.20
2008,07,20,07,50,14.20
2008,07,20,07,51,14.20
2008,07,20,07,52,14.20
2008,07,20,07,53,14.30
2008,07,20,07,54,14.30
2008,07,20,07,55,14.30
2008,07,20,07,56,14.40
2008,07,20,07,57,14.50
2008,07,20,07,58,14.50
2008,07,20,07,59,14.40
2008,07,20,08,00,14.50
2008,07,20,08,01,14.50
2008,07,20,08,02,14.50
2008,07,20,08,03,14.60
2008,07,20,08,04,14.60
2008,07,20,08,05,14.60
2008,07,20,08,06,14.60
2008,07,20,08,07,14.50
2008,07,20,08,08,14.50
2008,07,20,08,09,14.40
2008,07,20,08,10,14.40
2008,07,20,08,11,14.50
2008,07,20,08,12,14.60
2008,07,20,08,13,14.70
2008,07,20,08,14,14.70
2008,07,20,08,15,14.80
2008,07,20,08,16,14.80
2008,07,20,08,17,14.80
2008,07,20,08,18,14.80
2008,07,20,08,19,14.90
2008,07,20,08,20,14.90
2008,07,20,08,21,14.90
2008,07,20,08,22,14.90
2008,07,20,08,23,14.90
2008,07,20,08,24,14.80
2008,07,20,08,25,14.90
2008,07,20,08,26,15.00
2008,07,20,08,27,15.00
2008,07,20,08,28,15.00
2008,07,20,08,29,15.00
2008,07,20,08,30,15.00
2008,07,20,08,31,15.00
2008,07,20,08,32,15.10
2008,07,20,08,33,15.00
2008,07,20,08,34,15.00
2008,07,20,08,35,15.00
2008,07,20,08,36,15.00
2008,07,20,08,37,15.00
2008,07,20,08,38,15.10
2008,07,20,08,39,15.10
2008,07,20,08,40,15.20
2008,07,20,08,41,15.20
2008,07,20,08,42,15.20
2008,07,20,08,43,15.20
2008,07,20,08,44,15.20
2008,07,20,08,45,15.30
2008,07,20,08,46,15.30
2008,07,20,08,47,15.30
2008,07,20,08,48,15.30
2008,07,20,08,49,15.30
2008,07,20,08,50,15.30
2008,07,20,08,51,15.20
2008,07,20,08,52,15.20
2008,07,20,08,53,15.10
2008,07,20,08,54,15.10
2008,07,20,08,55,15.10
2008,07,20,08,56,15.20
2008,07,20,08,57,15.20
2008,07,20,08,58,15.20
2008,07,20,08,59,15.20
2008,07,20,09,00,15.10
2008,07,20,09,01,15.10
2008,07,20,09,02,15.10
2008,07,20,09,03,15.00
2008,07,20,09,04,15.10
2008,07,20,09,05,15.20
2008,07,20,09,06,15.20
2008,07,20,09,07,15.10
2008,07,20,09,08,15.10
2008,07,20,09,09,15.20
2008,07,20,09,10,15.30
2008,07,20,09,11,15.40
2008,07,20,09,12,15.50
2008,07,20,09,13,15.60
2008,07,20,09,14,15.60
2008,07,20,09,15,15.60
2008,07,20,09,16,15.60
2008,07,20,09,17,15.60
2008,07,20,09,18,15.60
2008,07,20,09,19,15.60
2008,07,20,09,20,15.70
2008,07,20,09,21,15.70
2008,07,20,09,22,15.80
2008,07,20,09,23,15.90
2008,07,20,09,24,16.00
2008,07,20,09,25,16.00
2008,07,20,09,26,16.00
2008,07,20,09,27,16.00
2008,07,20,09,28,16.10
2008,07,20,09,29,16.10
2008,07,20,09,30,16.20
2008,07,20,09,31,16.20
2008,07,20,09,32,16.20
2008,07,20,09,33,16.30
2008,07,20,09,34,16.30
2008,07,20,09,35,16.30
2008,07,20,09,36,16.40
2008,07,20,09,37,16.50
2008,07,20,09,38,16.50
2008,07,20,09,39,16.50
2008,07,20,09,40,16.60
2008,07,20,09,41,16.70
2008,07,20,09,42,16.70
2008,07,20,09,43,16.80
2008,07,20,09,44,16.90
2008,07,20,09,45,16.90
2008,07,20,09,46,17.00
2008,07,20,09,47,17.00
2008,07,20,09,48,17.00
2008,07,20,09,49,16.90
2008,07,20,09,50,16.90
2008,07,20,09,51,16.90
2008,07,20,09,52,16.80
2008,07,20,09,53,16.80
2008,07,20,09,54,16.80
2008,07,20,09,55,16.80
2008,07,20,09,56,16.90
2008,07,20,09,57,16.80
2008,07,20,09,58,16.80
2008,07,20,09,59,16.90
2008,07,20,10,00,17.00
2008,07,20,10,01,16.90
2008,07,20,10,02,16.90
2008,07,20,10,03,16.90
2008,07,20,10,04,16.90
2008,07,20,10,05,16.80
2008,07,20,10,06,16.80
2008,07,20,10,07,16.80
2008,07,20,10,08,16.80
2008,07,20,10,09,16.80
2008,07,20,10,10,16.90
2008,07,20,10,11,17.00
2008,07,20,10,12,17.10
2008,07,20,10,13,17.20
2008,07,20,10,14,17.20
2008,07,20,10,15,17.20
2008,07,20,10,16,17.10
2008,07,20,10,17,17.10
2008,07,20,10,18,17.00
2008,07,20,10,19,17.00
2008,07,20,10,20,17.00
2008,07,20,10,21,17.00
2008,07,20,10,22,17.00
2008,07,20,10,23,17.00
2008,07,20,10,24,17.00
2008,07,20,10,25,17.10
2008,07,20,10,26,17.10
2008,07,20,10,27,17.20
2008,07,20,10,28,17.10
2008,07,20,10,29,17.00
2008,07,20,10,30,16.90
2008,07,20,10,31,16.90
2008,07,20,10,32,17.00
2008,07,20,10,33,17.10
2008,07,20,10,34,17.10
2008,07,20,10,35,17.10
2008,07,20,10,36,17.10
2008,07,20,10,37,17.10
2008,07,20,10,38,17.20
2008,07,20,10,39,17.20
2008,07,20,10,40,17.30
2008,07,20,10,41,17.30
2008,07,20,10,42,17.30
2008,07,20,10,43,17.40
2008,07,20,10,44,17.40
2008,07,20,10,45,17.40
2008,07,20,10,46,17.50
2008,07,20,10,47,17.50
2008,07,20,10,48,17.60
2008,07,20,10,49,17.70
2008,07,20,10,50,17.80
2008,07,20,10,51,17.90
2008,07,20,10,52,17.90
2008,07,20,10,53,17.90
2008,07,20,10,54,17.90
2008,07,20,10,55,17.80
2008,07,20,10,56,17.90
2008,07,20,10,57,18.00
2008,07,20,10,58,18.10
2008,07,20,10,59,18.10
2008,07,20,11,00,18.20
2008,07,20,11,01,18.20
2008,07,20,11,02,18.10
2008,07,20,11,03,18.00
2008,07,20,11,04,17.90
2008,07,20,11,05,17.90
2008,07,20,11,06,17.90
2008,07,20,11,07,18.10
2008,07,20,11,08,18.20
2008,07,20,11,09,18.20
2008,07,20,11,10,18.10
2008,07,20,11,11,18.10
2008,07,20,11,12,18.00
2008,07,20,11,13,18.00
2008,07,20,11,14,18.00
2008,07,20,11,15,18.00
2008,07,20,11,16,18.00
2008,07,20,11,17,18.00
2008,07,20,11,18,18.00
2008,07,20,11,19,18.00
2008,07,20,11,20,18.00
2008,07,20,11,21,18.20
2008,07,20,11,22,18.20
2008,07,20,11,23,18.30
2008,07,20,11,24,18.30
2008,07,20,11,25,18.30
2008,07,20,11,26,18.20
2008,07,20,11,27,18.20
2008,07,20,11,28,18.20
2008,07,20,11,29,18.20
2008,07,20,11,30,18.20
2008,07,20,11,31,18.30
2008,07,20,11,32,18.30
2008,07,20,11,33,18.30
2008,07,20,11,34,18.30
2008,07,20,11,35,18.30
2008,07,20,11,36,18.30
2008,07,20,11,37,18.40
2008,07,20,11,38,18.30
2008,07,20,11,39,18.20
2008,07,20,11,40,18.20
2008,07,20,11,41,18.20
2008,07,20,11,42,18.20
2008,07,20,11,43,18.20
2008,07,20,11,44,18.40
2008,07,20,11,45,18.50
2008,07,20,11,46,18.50
2008,07,20,11,47,18.60
2008,07,20,11,48,18.60
2008,07,20,11,49,18.50
2008,07,20,11,50,18.40
2008,07,20,11,51,18.40
2008,07,20,11,52,18.40
2008,07,20,11,53,18.50
2008,07,20,11,54,18.50
2008,07,20,11,55,18.40
2008,07,20,11,56,18.40
2008,07,20,11,57,18.40
2008,07,20,11,58,18.40
2008,07,20,11,59,18.40
2008,07,20,12,00,18.40
2008,07,20,12,01,18.50
2008,07,20,12,02,18.50
2008,07,20,12,03,18.40
2008,07,20,12,04,18.40
2008,07,20,12,05,18.40
2008,07,20,12,06,18.40
2008,07,20,12,07,18.40
2008,07,20,12,08,18.50
2008,07,20,12,09,18.60
2008,07,20,12,10,18.60
2008,07,20,12,11,18.70
2008,07,20,12,12,18.80
2008,07,20,12,13,19.00
2008,07,20,12,14,19.20
2008,07,20,12,15,19.20
2008,07,20,12,16,19.30
2008,07,20,12,17,19.30
2008,07,20,12,18,19.40
2008,07,20,12,19,19.40
2008,07,20,12,20,19.40
2008,07,20,12,21,19.50
2008,07,20,12,22,19.60
2008,07,20,12,23,19.60
2008,07,20,12,24,19.60
2008,07,20,12,25,19.60
2008,07,20,12,26,19.60
2008,07,20,12,27,19.60
2008,07,20,12,28,19.70
2008,07,20,12,29,19.70
2008,07,20,12,30,19.70
2008,07,20,12,31,19.60
2008,07,20,12,32,19.60
2008,07,20,12,33,19.70
2008,07,20,12,34,19.80
2008,07,20,12,35,19.90
2008,07,20,12,36,19.90
2008,07,20,12,37,19.90
2008,07,20,12,38,19.80
2008,07,20,12,39,19.90
2008,07,20,12,40,20.00
2008,07,20,12,41,20.00
2008,07,20,12,42,20.10
2008,07,20,12,43,20.30
2008,07,20,12,44,20.30
2008,07,20,12,45,20.30
2008,07,20,12,46,20.30
2008,07,20,12,47,20.30
2008,07,20,12,48,20.20
2008,07,20,12,49,20.20
2008,07,20,12,50,20.10
2008,07,20,12,51,20.20
2008,07,20,12,52,20.30
2008,07,20,12,53,20.20
2008,07,20,12,54,20.10
2008,07,20,12,55,20.10
2008,07,20,12,56,20.20
2008,07,20,12,57,20.30
2008,07,20,12,58,20.20
2008,07,20,12,59,20.10
2008,07,20,13,00,20.00
2008,07,20,13,01,20.00
2008,07,20,13,02,20.10
2008,07,20,13,03,20.20
2008,07,20,13,04,20.30
2008,07,20,13,05,20.30
2008,07,20,13,06,20.30
2008,07,20,13,07,20.20
2008,07,20,13,08,20.10
2008,07,20,13,09,20.20
2008,07,20,13,10,20.20
2008,07,20,13,11,20.30
2008,07,20,13,12,20.40
2008,07,20,13,13,20.40
2008,07,20,13,14,20.40
2008,07,20,13,15,20.40
2008,07,20,13,16,20.50
2008,07,20,13,17,20.60
2008,07,20,13,18,20.80
2008,07,20,13,19,20.90
2008,07,20,13,20,20.80
2008,07,20,13,21,20.80
2008,07,20,13,22,20.80
2008,07,20,13,23,20.90
2008,07,20,13,24,20.90
2008,07,20,13,25,21.00
2008,07,20,13,26,21.00
2008,07,20,13,27,21.00
2008,07,20,13,28,21.00
2008,07,20,13,29,20.80
2008,07,20,13,30,20.70
2008,07,20,13,31,20.60
2008,07,20,13,32,20.60
2008,07,20,13,33,20.60
2008,07,20,13,34,20.60
2008,07,20,13,35,20.60
2008,07,20,13,36,20.70
2008,07,20,13,37,20.70
2008,07,20,13,38,20.70
2008,07,20,13,39,20.70
2008,07,20,13,40,20.60
2008,07,20,13,41,20.50
2008,07,20,13,42,20.40
2008,07,20,13,43,20.40
2008,07,20,13,44,20.50
2008,07,20,13,45,20.70
2008,07,20,13,46,20.80
2008,07,20,13,47,20.80
2008,07,20,13,48,20.80
2008,07,20,13,49,20.90
2008,07,20,13,50,20.90
2008,07,20,13,51,20.90
2008,07,20,13,52,20.80
2008,07,20,13,53,20.80
2008,07,20,13,54,20.80
2008,07,20,13,55,20.80
2008,07,20,13,56,20.80
2008,07,20,13,57,20.80
2008,07,20,13,58,20.80
2008,07,20,13,59,20.80
2008,07,20,14,00,20.80
2008,07,20,14,01,20.80
2008,07,20,14,02,20.80
2008,07,20,14,03,20.80
2008,07,20,14,04,20.80
2008,07,20,14,05,20.80
2008,07,20,14,06,20.90
2008,07,20,14,07,20.90
2008,07,20,14,08,20.90
2008,07,20,14,09,21.10
2008,07,20,14,10,21.00
2008,07,20,14,11,21.00
2008,07,20,14,12,21.10
2008,07,20,14,13,21.20
2008,07,20,14,14,21.10
2008,07,20,14,15,21.10
2008,07,20,14,16,21.10
2008,07,20,14,17,21.20
2008,07,20,14,18,21.10
2008,07,20,14,19,21.10
2008,07,20,14,20,21.20
2008,07,20,14,21,21.10
2008,07,20,14,22,21.00
2008,07,20,14,23,20.90
2008,07,20,14,24,20.80
2008,07,20,14,25,20.80
2008,07,20,14,26,20.90
2008,07,20,14,27,21.00
2008,07,20,14,28,21.10
2008,07,20,14,29,21.20
2008,07,20,14,30,21.20
2008,07,20,14,31,21.30
2008,07,20,14,32,21.40
2008,07,20,14,33,21.60
2008,07,20,14,34,21.70
2008,07,20,14,35,21.70
2008,07,20,14,36,21.70
2008,07,20,14,37,21.70
2008,07,20,14,38,21.80
2008,07,20,14,39,21.80
2008,07,20,14,40,21.70
2008,07,20,14,41,21.70
2008,07,20,14,42,21.60
2008,07,20,14,43,21.80
2008,07,20,14,44,21.80
2008,07,20,14,45,21.90
2008,07,20,14,46,21.90
2008,07,20,14,47,21.90
2008,07,20,14,48,21.90
2008,07,20,14,49,21.90
2008,07,20,14,50,22.00
2008,07,20,14,51,22.10
2008,07,20,14,52,22.10
2008,07,20,14,53,22.10
2008,07,20,14,54,22.20
2008,07,20,14,55,22.30
2008,07,20,14,56,22.30
2008,07,20,14,57,22.40
2008,07,20,14,58,22.40
2008,07,20,14,59,22.40
2008,07,20,15,00,22.30
2008,07,20,15,01,22.40
2008,07,20,15,02,22.60
2008,07,20,15,03,22.70
2008,07,20,15,04,22.90
2008,07,20,15,05,22.90
2008,07,20,15,06,22.80
2008,07,20,15,07,22.80
2008,07,20,15,08,22.80
2008,07,20,15,09,22.80
2008,07,20,15,10,22.80
2008,07,20,15,11,22.80
2008,07,20,15,12,22.90
2008,07,20,15,13,23.00
2008,07,20,15,14,23.20
2008,07,20,15,15,23.20
2008,07,20,15,16,23.20
2008,07,20,15,17,23.20
2008,07,20,15,18,23.20
2008,07,20,15,19,23.20
2008,07,20,15,20,23.30
2008,07,20,15,21,23.40
2008,07,20,15,22,23.40
2008,07,20,15,23,23.40
2008,07,20,15,24,23.60
2008,07,20,15,25,23.70
2008,07,20,15,26,23.80
2008,07,20,15,27,23.80
2008,07,20,15,28,23.80
2008,07,20,15,29,23.90
2008,07,20,15,30,23.90
2008,07,20,15,31,23.80
2008,07,20,15,32,23.80
2008,07,20,15,33,23.70
2008,07,20,15,34,23.70
2008,07,20,15,35,23.70
2008,07,20,15,36,23.60
2008,07,20,15,37,23.50
2008,07,20,15,38,23.40
2008,07,20,15,39,23.30
2008,07,20,15,40,23.40
2008,07,20,15,41,23.50
2008,07,20,15,42,23.50
2008,07,20,15,43,23.60
2008,07,20,15,44,23.50
2008,07,20,15,45,23.50
2008,07,20,15,46,23.60
2008,07,20,15,47,23.60
2008,07,20,15,48,23.60
2008,07,20,15,49,23.60
2008,07,20,15,50,23.70
2008,07,20,15,51,23.70
2008,07,20,15,52,23.80
2008,07,20,15,53,23.90
2008,07,20,15,54,23.90
2008,07,20,15,55,23.90
2008,07,20,15,56,24.00
2008,07,20,15,57,24.10
2008,07,20,15,58,24.00
2008,07,20,15,59,24.00
2008,07,20,16,00,23.90
2008,07,20,16,01,23.90
2008,07,20,16,02,23.90
2008,07,20,16,03,23.80
2008,07,20,16,04,23.80
2008,07,20,16,05,23.90
2008,07,20,16,06,23.90
2008,07,20,16,07,23.90
2008,07,20,16,08,23.90
2008,07,20,16,09,23.90
2008,07,20,16,10,23.80
2008,07,20,16,11,23.80
2008,07,20,16,12,23.80
2008,07,20,16,13,23.70
2008,07,20,16,14,23.70
2008,07,20,16,15,23.70
2008,07,20,16,16,23.70
2008,07,20,16,17,23.70
2008,07,20,16,18,23.60
2008,07,20,16,19,23.60
2008,07,20,16,20,23.50
2008,07,20,16,21,23.50
2008,07,20,16,22,23.40
2008,07,20,16,23,23.30
2008,07,20,16,24,23.30
2008,07,20,16,25,23.20
2008,07,20,16,26,23.20
2008,07,20,16,27,23.30
2008,07,20,16,28,23.50
2008,07,20,16,29,23.60
2008,07,20,16,30,23.70
2008,07,20,16,31,23.60
2008,07,20,16,32,23.60
2008,07,20,16,33,23.50
2008,07,20,16,34,23.40
2008,07,20,16,35,23.30
2008,07,20,16,36,23.20
2008,07,20,16,37,23.30
2008,07,20,16,38,23.20
2008,07,20,16,39,23.30
2008,07,20,16,40,23.20
2008,07,20,16,41,23.10
2008,07,20,16,42,23.00
2008,07,20,16,43,22.90
2008,07,20,16,44,22.90
2008,07,20,16,45,22.90
2008,07,20,16,46,22.80
2008,07,20,16,47,22.80
2008,07,20,16,48,22.90
2008,07,20,16,49,22.90
2008,07,20,16,50,22.90
2008,07,20,16,51,22.80
2008,07,20,16,52,22.70
2008,07,20,16,53,22.80
2008,07,20,16,54,22.90
2008,07,20,16,55,22.90
2008,07,20,16,56,22.80
2008,07,20,16,57,22.90
2008,07,20,16,58,22.90
2008,07,20,16,59,22.80
2008,07,20,17,00,22.70
2008,07,20,17,01,22.80
2008,07,20,17,02,22.80
2008,07,20,17,03,22.90
2008,07,20,17,04,22.90
2008,07,20,17,05,22.80
2008,07,20,17,06,22.90
2008,07,20,17,07,23.00
2008,07,20,17,08,23.10
2008,07,20,17,09,23.20
2008,07,20,17,10,23.20
2008,07,20,17,11,23.20
2008,07,20,17,12,23.10
2008,07,20,17,13,23.10
2008,07,20,17,14,23.10
2008,07,20,17,15,23.00
2008,07,20,17,16,23.00
2008,07,20,17,17,22.90
2008,07,20,17,18,22.90
2008,07,20,17,19,22.90
2008,07,20,17,20,23.00